Piney Island, NC

1:44 AM EDT on August 19, 2017 (GMT -0400)
Piney Island

Weather History for KNBT - October, 2012

Change the Weather History Date:

Thursday, October 25, 2012

  Actual Average (KMRH) Record (KMRH)
Temperature  
Mean Temperature 70 °F -  
Max Temperature 75 °F 74 °F 84 °F (1991)
Min Temperature 64 °F 55 °F 39 °F (2006)
Cooling Degree Days 4    
Growing Degree Days 20 (Base 50)    
Moisture  
Dew Point 65 °F    
Average Humidity 89    
Maximum Humidity 100    
Minimum Humidity 66    
Precipitation  
Precipitation 0.02 in - - ()
Sea Level Pressure  
Sea Level Pressure 30.13 in    
Wind  
Wind Speed 3 mph (NNE)    
Max Wind Speed 10 mph    
Max Gust Speed -    
Visibility 4 miles    
Events Fog    
Averages and records for this station are not official NWS values.
T = Trace of Precipitation, MM = Missing Value Source: NWS Daily Summary

Daily Weather History Graph

Daily Weather History Graph

Search for Another Location

Airport or City:

Trip Planner

Search our weather history database for the weather conditions in past years. The results will help you decide how hot, cold, wet, or windy it might be!

Date:

Astronomy

Oct. 25, 2012 Rise Set
Actual Time 7:20 AM EDT 6:18 PM EDT
Civil Twilight 6:54 AM EDT 6:44 PM EDT
Nautical Twilight 6:25 AM EDT 7:13 PM EDT
Astronomical Twilight 5:55 AM EDT 7:43 PM EDT
Moon 3:56 PM EDT (10/25) 3:23 AM EDT (10/25)
Length of Visible Light 11h 49m
Length of Day
10h 57m
Waxing Gibbous, 84% of the Moon is Illuminated
Oct 25
Waxing Gibbous
Oct 29
Full
Nov 6
Last Quarter
Nov 13
New
Nov 20
First Quarter

Hourly Weather History & Observations

Time (EDT) Temp. Dew Point Humidity Pressure Visibility Wind Dir Wind Speed Gust Speed Precip Events Conditions
12:03 AM 66.2 °F 64.4 °F 94% 30.14 in 0.5 mi Calm Calm - N/A Fog Fog
12:15 AM 66.2 °F 64.4 °F 94% 30.14 in 1.0 mi Calm Calm - N/A   Clear
12:22 AM 66.2 °F 64.4 °F 94% 30.14 in 3.0 mi Calm Calm - N/A   Clear
12:38 AM 66.2 °F 64.4 °F 94% 30.14 in 1.8 mi SSW 3.5 mph - N/A   Clear
12:47 AM 66.2 °F 64.4 °F 94% 30.14 in 0.5 mi SSW 3.5 mph - N/A Fog Fog
12:56 AM 64.9 °F 64.0 °F 97% 30.15 in 0.5 mi Calm Calm - N/A Fog Fog
1:12 AM 64.4 °F 62.6 °F 94% 30.14 in 0.2 mi West 3.5 mph - N/A Fog Fog
1:21 AM 66.2 °F 64.4 °F 94% 30.14 in 0.2 mi West 3.5 mph - N/A Fog Fog
1:31 AM 66.2 °F 64.4 °F 94% 30.14 in 0.5 mi Calm Calm - 0.01 in Fog Fog
1:44 AM 66.2 °F 64.4 °F 94% 30.14 in 0.2 mi Calm Calm - 0.01 in Fog Fog
1:54 AM 66.2 °F 64.4 °F 94% 30.14 in 0.5 mi Calm Calm - 0.01 in Fog Fog
1:56 AM 66.9 °F 64.9 °F 93% 30.15 in 0.8 mi Calm Calm - 0.01 in   Clear
2:06 AM 66.2 °F 66.2 °F 100% 30.14 in 1.5 mi Calm Calm - N/A   Clear
2:08 AM 66.2 °F 66.2 °F 100% 30.14 in 3.0 mi Calm Calm - N/A   Clear
2:56 AM 66.0 °F 64.9 °F 96% 30.13 in 10.0 mi Calm Calm - N/A   Clear
3:08 AM 66.2 °F 64.4 °F 94% 30.12 in 1.5 mi Calm Calm - N/A   Clear
3:18 AM 66.2 °F 64.4 °F 94% 30.11 in 0.8 mi Calm Calm - N/A   Clear
3:24 AM 66.2 °F 64.4 °F 94% 30.11 in 2.5 mi Calm Calm - N/A   Clear
3:31 AM 66.2 °F 64.4 °F 94% 30.11 in 6.0 mi Calm Calm - N/A   Clear
3:50 AM 66.2 °F 64.4 °F 94% 30.11 in 1.8 mi North 6.9 mph - N/A   Partly Cloudy
3:54 AM 66.2 °F 64.4 °F 94% 30.11 in 0.8 mi North 6.9 mph - N/A   Mist
3:56 AM 66.0 °F 64.0 °F 93% 30.13 in 0.5 mi North 6.9 mph - N/A Fog Fog
4:05 AM 64.4 °F 62.6 °F 94% 30.11 in 0.8 mi North 5.8 mph - N/A   Mist
4:11 AM 64.4 °F 62.6 °F 94% 30.12 in 0.5 mi North 5.8 mph - N/A Fog Fog
4:18 AM 64.4 °F 64.4 °F 100% 30.12 in 0.2 mi North 4.6 mph - N/A Fog Fog
4:34 AM 66.2 °F 64.4 °F 94% 30.12 in 0.2 mi North 3.5 mph - N/A Fog Fog
4:54 AM 68.0 °F 66.2 °F 94% 30.12 in 0.8 mi NNE 3.5 mph - N/A   Mist
4:56 AM 68.0 °F 66.0 °F 93% 30.14 in 1.2 mi NNE 4.6 mph - N/A   Partly Cloudy
5:38 AM 68.0 °F 66.2 °F 94% 30.13 in 1.0 mi NNE 5.8 mph - N/A   Clear
5:42 AM 68.0 °F 66.2 °F 94% 30.13 in 3.0 mi NNE 5.8 mph - N/A   Clear
5:56 AM 66.9 °F 66.0 °F 97% 30.15 in 5.0 mi NNE 6.9 mph - N/A   Clear
6:56 AM 66.9 °F 64.9 °F 93% 30.15 in 8.0 mi NNE 5.8 mph - 0.01 in   Clear
7:56 AM 68.0 °F 66.0 °F 93% 30.16 in 10.0 mi NE 4.6 mph - N/A   Clear
8:56 AM 72.0 °F 66.9 °F 84% 30.17 in 10.0 mi NE 3.5 mph - N/A   Clear
9:56 AM 73.0 °F 64.0 °F 73% 30.18 in 10.0 mi NE 6.9 mph - N/A   Clear
10:56 AM 73.9 °F 64.0 °F 71% 30.19 in 10.0 mi NE 10.4 mph - N/A   Clear
11:56 AM 73.9 °F 64.0 °F 71% 30.18 in 10.0 mi NE 8.1 mph - N/A   Clear
12:56 PM 75.9 °F 64.9 °F 69% 30.16 in 10.0 mi ENE 6.9 mph - N/A   Clear
1:56 PM 75.0 °F 64.9 °F 71% 30.14 in 10.0 mi NE 8.1 mph - N/A   Clear
2:56 PM 75.0 °F 63.0 °F 66% 30.12 in 10.0 mi ENE 8.1 mph - N/A   Clear
3:56 PM 73.9 °F 64.9 °F 73% 30.12 in 10.0 mi ENE 9.2 mph - N/A   Clear
4:56 PM 75.0 °F 64.0 °F 69% 30.12 in 10.0 mi ENE 6.9 mph - N/A   Clear
5:56 PM 73.0 °F 64.0 °F 73% 30.13 in 10.0 mi ENE 4.6 mph - N/A   Clear
6:56 PM 72.0 °F 64.0 °F 76% 30.13 in 10.0 mi ENE 4.6 mph - N/A   Clear
7:56 PM 71.1 °F 64.0 °F 78% 30.13 in 10.0 mi ENE 4.6 mph - N/A   Clear
8:56 PM 71.1 °F 64.9 °F 81% 30.13 in 10.0 mi NE 8.1 mph - N/A   Clear
9:56 PM 70.0 °F 66.9 °F 90% 30.12 in 7.0 mi NE 9.2 mph - N/A   Clear
10:56 PM 69.1 °F 66.0 °F 90% 30.11 in 7.0 mi NE 8.1 mph - N/A   Clear
11:56 PM 69.1 °F 66.0 °F 90% 30.10 in 8.0 mi NE 9.2 mph - N/A   Clear